Time,TemperatureF,DewpointF,PressureIn,WindDirection,WindDirectionDegrees,WindSpeedMPH,WindSpeedGustMPH,Humidity,HourlyPrecipIn,Conditions,Clouds,dailyrainin,SolarRadiationWatts/m^2,SoftwareType,DateUTC
2013-06-18 00:00:00,51.8,42.3,29.86,NW,305,2.0,3.0,70,0.00,,,0.00,0,Wunderground v.1.15,2013-06-18 06:00:00,
2013-06-18 00:20:00,50.6,41.2,29.86,NW,314,1.0,1.0,70,0.00,,,0.00,0,Wunderground v.1.15,2013-06-18 06:20:00,
2013-06-18 00:30:00,49.2,41.3,29.86,NW,325,0.0,0.0,74,0.00,,,0.00,0,Wunderground v.1.15,2013-06-18 06:30:00,
2013-06-18 00:40:00,48.6,41.0,29.85,NW,310,1.0,1.0,75,0.00,,,0.00,0,Wunderground v.1.15,2013-06-18 06:40:00,
2013-06-18 00:50:00,47.5,40.0,29.85,NW,309,0.0,4.0,75,0.00,,,0.00,0,Wunderground v.1.15,2013-06-18 06:50:00,
2013-06-18 01:00:00,46.3,39.5,29.85,NW,309,1.0,1.0,77,0.00,,,0.00,0,Wunderground v.1.15,2013-06-18 07:00:00,
2013-06-18 01:10:00,46.0,39.5,29.85,NW,309,0.0,0.0,78,0.00,,,0.00,0,Wunderground v.1.15,2013-06-18 07:10:00,
2013-06-18 01:20:00,45.8,39.7,29.86,NW,309,1.0,2.0,79,0.00,,,0.00,0,Wunderground v.1.15,2013-06-18 07:20:00,
2013-06-18 01:30:00,45.8,40.3,29.86,NW,325,2.0,2.0,81,0.00,,,0.00,0,Wunderground v.1.15,2013-06-18 07:30:00,
2013-06-18 01:40:00,45.4,39.9,29.86,NW,325,2.0,2.0,81,0.00,,,0.00,0,Wunderground v.1.15,2013-06-18 07:40:00,
2013-06-18 01:50:00,44.6,39.4,29.85,NW,325,0.0,0.0,82,0.00,,,0.00,0,Wunderground v.1.15,2013-06-18 07:50:00,
2013-06-18 02:00:00,44.0,38.9,29.85,NW,325,0.0,0.0,82,0.00,,,0.00,0,Wunderground v.1.15,2013-06-18 08:00:00,
2013-06-18 02:10:00,43.6,38.8,29.85,NW,325,0.0,0.0,83,0.00,,,0.00,0,Wunderground v.1.15,2013-06-18 08:10:00,
2013-06-18 02:20:00,43.1,38.6,29.85,NW,325,0.0,0.0,84,0.00,,,0.00,0,Wunderground v.1.15,2013-06-18 08:20:00,
2013-06-18 02:30:00,42.7,38.8,29.85,NW,325,0.0,0.0,86,0.00,,,0.00,0,Wunderground v.1.15,2013-06-18 08:30:00,
2013-06-18 02:40:00,42.7,39.1,29.85,NW,325,0.0,0.0,87,0.00,,,0.00,0,Wunderground v.1.15,2013-06-18 08:40:00,
2013-06-18 02:50:00,42.5,38.3,29.85,NW,325,0.0,0.0,85,0.00,,,0.00,0,Wunderground v.1.15,2013-06-18 08:50:00,
2013-06-18 03:00:00,42.1,38.5,29.85,NW,325,1.0,2.0,87,0.00,,,0.00,0,Wunderground v.1.15,2013-06-18 09:00:00,
2013-06-18 03:10:00,41.7,38.1,29.85,NW,325,1.0,1.0,87,0.00,,,0.00,0,Wunderground v.1.15,2013-06-18 09:10:00,
2013-06-18 03:20:00,41.4,37.8,29.85,NW,325,0.0,0.0,87,0.00,,,0.00,0,Wunderground v.1.15,2013-06-18 09:20:00,
2013-06-18 03:30:00,41.3,38.0,29.85,NW,325,1.0,1.0,88,0.00,,,0.00,0,Wunderground v.1.15,2013-06-18 09:30:00,
2013-06-18 03:40:00,41.0,37.7,29.85,NW,325,0.0,0.0,88,0.00,,,0.00,0,Wunderground v.1.15,2013-06-18 09:40:00,
2013-06-18 03:50:00,40.8,37.8,29.85,NW,325,1.0,1.0,89,0.00,,,0.00,0,Wunderground v.1.15,2013-06-18 09:50:00,
2013-06-18 04:00:00,40.6,37.3,29.85,NW,325,3.0,3.0,88,0.00,,,0.00,0,Wunderground v.1.15,2013-06-18 10:00:00,
2013-06-18 04:10:00,40.6,37.3,29.84,NW,325,0.0,0.0,88,0.00,,,0.00,0,Wunderground v.1.15,2013-06-18 10:10:00,
2013-06-18 04:20:00,40.7,37.4,29.84,NW,325,3.0,3.0,88,0.00,,,0.00,0,Wunderground v.1.15,2013-06-18 10:20:00,
2013-06-18 04:30:00,40.7,37.4,29.84,NW,325,0.0,2.0,88,0.00,,,0.00,0,Wunderground v.1.15,2013-06-18 10:30:00,
2013-06-18 04:40:00,40.8,37.8,29.84,NW,325,1.0,1.0,89,0.00,,,0.00,0,Wunderground v.1.15,2013-06-18 10:40:00,
2013-06-18 04:50:00,40.6,37.3,29.84,NW,325,1.0,1.0,88,0.00,,,0.00,0,Wunderground v.1.15,2013-06-18 10:50:00,
2013-06-18 05:00:00,40.6,37.3,29.84,NW,325,0.0,0.0,88,0.00,,,0.00,0,Wunderground v.1.15,2013-06-18 11:00:00,
2013-06-18 05:10:00,40.7,37.1,29.84,NW,325,0.0,0.0,87,0.00,,,0.00,0,Wunderground v.1.15,2013-06-18 11:10:00,
2013-06-18 05:20:00,40.5,37.2,29.84,NW,325,1.0,1.0,88,0.00,,,0.00,0,Wunderground v.1.15,2013-06-18 11:20:00,
2013-06-18 05:30:00,40.4,36.5,29.84,NW,325,0.0,0.0,86,0.00,,,0.00,0,Wunderground v.1.15,2013-06-18 11:30:00,
2013-06-18 05:40:00,40.0,36.4,29.84,NNW,331,1.0,3.0,87,0.00,,,0.00,9,Wunderground v.1.15,2013-06-18 11:40:00,
2013-06-18 05:50:00,40.1,36.5,29.84,NW,306,3.0,3.0,87,0.00,,,0.00,12,Wunderground v.1.15,2013-06-18 11:50:00,
2013-06-18 06:00:00,40.1,36.5,29.84,NW,305,1.0,1.0,87,0.00,,,0.00,18,Wunderground v.1.15,2013-06-18 12:00:00,
2013-06-18 06:10:00,40.6,37.3,29.84,West,279,0.0,0.0,88,0.00,,,0.00,21,Wunderground v.1.15,2013-06-18 12:10:00,
2013-06-18 06:20:00,41.4,37.8,29.84,WNW,290,0.0,0.0,87,0.00,,,0.00,25,Wunderground v.1.15,2013-06-18 12:20:00,
2013-06-18 06:40:00,43.4,39.8,29.84,NNW,347,1.0,1.0,87,0.00,,,0.00,37,Wunderground v.1.15,2013-06-18 12:40:00,
2013-06-18 06:50:00,44.9,41.3,29.84,North,355,0.0,0.0,87,0.00,,,0.00,44,Wunderground v.1.15,2013-06-18 12:50:00,
2013-06-18 07:00:00,46.3,42.6,29.84,North,355,0.0,0.0,87,0.00,,,0.00,44,Wunderground v.1.15,2013-06-18 13:00:00,
2013-06-18 07:10:00,48.2,44.5,29.83,North,349,0.0,0.0,87,0.00,,,0.00,67,Wunderground v.1.15,2013-06-18 13:10:00,
2013-06-18 07:20:00,50.4,45.4,29.83,NNW,347,0.0,0.0,83,0.00,,,0.00,272,Wunderground v.1.15,2013-06-18 13:20:00,
2013-06-18 07:30:00,53.6,46.9,29.83,East,80,0.0,0.0,78,0.00,,,0.00,318,Wunderground v.1.15,2013-06-18 13:30:00,
2013-06-18 07:40:00,55.3,46.4,29.82,East,80,0.0,0.0,72,0.00,,,0.00,352,Wunderground v.1.15,2013-06-18 13:40:00,
2013-06-18 07:50:00,56.3,44.7,29.82,SE,144,0.0,0.0,65,0.00,,,0.00,390,Wunderground v.1.15,2013-06-18 13:50:00,
2013-06-18 08:00:00,56.7,45.1,29.81,ESE,102,0.0,0.0,65,0.00,,,0.00,420,Wunderground v.1.15,2013-06-18 14:00:00,
2013-06-18 08:10:00,57.3,44.8,29.81,ESE,113,0.0,2.0,63,0.00,,,0.00,457,Wunderground v.1.15,2013-06-18 14:10:00,
2013-06-18 08:20:00,57.3,44.0,29.81,East,98,1.0,1.0,61,0.00,,,0.00,490,Wunderground v.1.15,2013-06-18 14:20:00,
2013-06-18 08:30:00,58.6,43.4,29.81,ENE,77,0.0,0.0,57,0.00,,,0.00,519,Wunderground v.1.15,2013-06-18 14:30:00,
2013-06-18 08:40:00,60.5,43.3,29.81,ENE,78,0.0,0.0,53,0.00,,,0.00,555,Wunderground v.1.15,2013-06-18 14:40:00,
2013-06-18 08:51:00,61.7,41.8,29.80,ESE,122,0.0,0.0,48,0.00,,,0.00,589,Wunderground v.1.15,2013-06-18 14:51:00,
2013-06-18 09:00:00,62.6,41.5,29.80,SE,128,0.0,3.0,46,0.00,,,0.00,621,Wunderground v.1.15,2013-06-18 15:00:00,
2013-06-18 09:10:00,62.8,40.5,29.80,SE,131,1.0,2.0,44,0.00,,,0.00,649,Wunderground v.1.15,2013-06-18 15:10:00,
2013-06-18 09:20:00,63.1,42.5,29.80,SE,133,1.0,4.0,47,0.00,,,0.00,680,Wunderground v.1.15,2013-06-18 15:20:00,
2013-06-18 09:30:00,63.8,42.6,29.80,SE,128,1.0,1.0,46,0.00,,,0.00,710,Wunderground v.1.15,2013-06-18 15:30:00,
2013-06-18 09:40:00,64.9,41.2,29.79,SE,136,1.0,1.0,42,0.00,,,0.00,738,Wunderground v.1.15,2013-06-18 15:40:00,
2013-06-18 09:50:00,66.1,42.3,29.79,SE,138,1.0,1.0,42,0.00,,,0.00,765,Wunderground v.1.15,2013-06-18 15:50:00,
2013-06-18 10:00:00,67.9,45.2,29.78,ENE,76,0.0,1.0,44,0.00,,,0.00,795,Wunderground v.1.15,2013-06-18 16:00:00,
2013-06-18 10:10:00,68.3,41.7,29.78,ESE,113,2.0,2.0,38,0.00,,,0.00,821,Wunderground v.1.15,2013-06-18 16:10:00,
2013-06-18 10:20:00,69.4,44.7,29.77,ESE,113,1.0,3.0,41,0.00,,,0.00,846,Wunderground v.1.15,2013-06-18 16:20:00,
2013-06-18 10:30:00,69.5,44.1,29.77,SE,132,4.0,5.0,40,0.00,,,0.00,902,Wunderground v.1.15,2013-06-18 16:30:00,
2013-06-18 10:40:00,70.4,43.6,29.76,ESE,112,3.0,3.0,38,0.00,,,0.00,970,Wunderground v.1.15,2013-06-18 16:40:00,
2013-06-18 10:50:00,69.4,42.0,29.76,SE,136,5.0,5.0,37,0.00,,,0.00,176,Wunderground v.1.15,2013-06-18 16:50:00,
2013-06-18 11:00:00,70.8,43.2,29.75,South,171,2.0,2.0,37,0.00,,,0.00,246,Wunderground v.1.15,2013-06-18 17:00:00,
2013-06-18 11:11:00,68.3,43.0,29.75,SSE,163,5.0,5.0,40,0.00,,,0.00,221,Wunderground v.1.15,2013-06-18 17:11:00,
2013-06-18 11:20:00,70.7,43.1,29.75,ESE,111,4.0,11.0,37,0.00,,,0.00,1160,Wunderground v.1.15,2013-06-18 17:20:00,
2013-06-18 11:30:00,71.9,43.5,29.74,ESE,113,8.0,9.0,36,0.00,,,0.00,977,Wunderground v.1.15,2013-06-18 17:30:00,
2013-06-18 11:40:00,70.3,41.3,29.74,SE,143,6.0,6.0,35,0.00,,,0.00,390,Wunderground v.1.15,2013-06-18 17:40:00,
2013-06-18 11:50:00,70.5,40.8,29.74,SSE,148,1.0,4.0,34,0.00,,,0.00,364,Wunderground v.1.15,2013-06-18 17:50:00,
2013-06-18 12:10:00,67.9,42.7,29.74,ESE,109,4.0,4.0,40,0.00,,,0.00,251,Wunderground v.1.15,2013-06-18 18:10:00,
2013-06-18 12:20:00,67.9,42.0,29.74,SE,132,3.0,3.0,39,0.00,,,0.00,487,Wunderground v.1.15,2013-06-18 18:20:00,
2013-06-18 12:30:00,69.4,45.3,29.74,SSW,196,4.0,4.0,42,0.00,,,0.00,689,Wunderground v.1.15,2013-06-18 18:30:00,
2013-06-18 12:40:00,70.2,41.3,29.74,SSW,198,5.0,5.0,35,0.00,,,0.00,299,Wunderground v.1.15,2013-06-18 18:40:00,
2013-06-18 12:50:00,69.1,39.5,29.74,SSW,209,6.0,9.0,34,0.00,,,0.00,213,Wunderground v.1.15,2013-06-18 18:50:00,
2013-06-18 13:01:00,67.6,36.7,29.74,SSE,160,7.0,8.0,32,0.00,,,0.00,265,Wunderground v.1.15,2013-06-18 19:01:00,
2013-06-18 13:10:00,68.2,38.0,29.74,SSE,155,6.0,12.0,33,0.00,,,0.00,592,Wunderground v.1.15,2013-06-18 19:10:00,
2013-06-18 13:30:00,70.4,35.7,29.75,SSE,161,11.0,11.0,28,0.00,,,0.00,424,Wunderground v.1.15,2013-06-18 19:30:00,
2013-06-18 13:40:00,68.4,35.7,29.75,SE,146,11.0,16.0,30,0.00,,,0.00,381,Wunderground v.1.15,2013-06-18 19:40:00,
2013-06-18 14:00:00,66.8,35.2,29.74,SE,142,6.0,10.0,31,0.00,,,0.00,434,Wunderground v.1.15,2013-06-18 20:00:00,
2013-06-18 14:10:00,67.5,35.8,29.74,SSW,199,3.0,5.0,31,0.00,,,0.00,552,Wunderground v.1.15,2013-06-18 20:10:00,
2013-06-18 14:20:00,69.1,37.2,29.74,SSE,154,4.0,4.0,31,0.00,,,0.00,455,Wunderground v.1.15,2013-06-18 20:20:00,
2013-06-18 14:30:00,69.7,39.3,29.74,SSE,148,1.0,4.0,33,0.00,,,0.00,1081,Wunderground v.1.15,2013-06-18 20:30:00,
2013-06-18 14:40:00,72.3,35.5,29.73,South,179,3.0,3.0,26,0.00,,,0.00,1069,Wunderground v.1.15,2013-06-18 20:40:00,
2013-06-18 14:50:00,72.2,33.4,29.72,SSE,158,6.0,6.0,24,0.00,,,0.00,1097,Wunderground v.1.15,2013-06-18 20:50:00,
2013-06-18 15:00:00,74.0,36.9,29.71,ESE,114,7.0,10.0,26,0.00,,,0.00,1051,Wunderground v.1.15,2013-06-18 21:00:00,
2013-06-18 15:10:00,74.2,34.0,29.71,SSE,152,7.0,7.0,23,0.00,,,0.00,257,Wunderground v.1.15,2013-06-18 21:10:00,
2013-06-18 15:20:00,70.9,35.2,29.70,SE,130,7.0,8.0,27,0.00,,,0.00,311,Wunderground v.1.15,2013-06-18 21:20:00,
2013-06-18 15:30:00,69.6,33.2,29.71,SSE,165,7.0,7.0,26,0.00,,,0.00,239,Wunderground v.1.15,2013-06-18 21:30:00,
2013-06-18 15:40:00,69.7,33.3,29.72,SSW,207,7.0,8.0,26,0.00,,,0.00,218,Wunderground v.1.15,2013-06-18 21:40:00,
2013-06-18 15:50:00,69.1,32.7,29.72,SW,223,8.0,8.0,26,0.00,,,0.00,155,Wunderground v.1.15,2013-06-18 21:50:00,
2013-06-18 16:00:00,67.1,35.4,29.73,ENE,59,6.0,6.0,31,0.00,,,0.00,162,Wunderground v.1.15,2013-06-18 22:00:00,
2013-06-18 16:10:00,67.2,37.1,29.73,NE,44,6.0,10.0,33,0.00,,,0.00,276,Wunderground v.1.15,2013-06-18 22:10:00,
2013-06-18 16:20:00,67.5,35.8,29.72,NE,41,8.0,8.0,31,0.00,,,0.00,343,Wunderground v.1.15,2013-06-18 22:20:00,
2013-06-18 16:30:00,68.6,36.7,29.71,NE,34,7.0,7.0,31,0.00,,,0.00,199,Wunderground v.1.15,2013-06-18 22:30:00,
2013-06-18 16:40:00,68.3,35.6,29.71,NE,41,6.0,6.0,30,0.00,,,0.00,729,Wunderground v.1.15,2013-06-18 22:40:00,
2013-06-18 16:50:00,69.6,36.8,29.70,NNE,16,5.0,5.0,30,0.00,,,0.00,97,Wunderground v.1.15,2013-06-18 22:50:00,
2013-06-18 17:10:00,68.8,36.1,29.69,East,92,7.0,7.0,30,0.00,,,0.00,650,Wunderground v.1.15,2013-06-18 23:10:00,
2013-06-18 17:20:00,69.4,38.2,29.69,SSE,156,6.0,9.0,32,0.00,,,0.00,580,Wunderground v.1.15,2013-06-18 23:20:00,
2013-06-18 17:30:00,69.5,39.9,29.69,SE,124,8.0,8.0,34,0.00,,,0.00,547,Wunderground v.1.15,2013-06-18 23:30:00,
2013-06-18 17:40:00,68.7,37.6,29.68,ESE,103,9.0,9.0,32,0.00,,,0.00,503,Wunderground v.1.15,2013-06-18 23:40:00,
2013-06-18 17:50:00,68.6,37.5,29.68,East,92,8.0,8.0,32,0.00,,,0.00,469,Wunderground v.1.15,2013-06-18 23:50:00,
2013-06-18 18:00:00,68.6,37.5,29.69,East,86,5.0,13.0,32,0.00,,,0.00,439,Wunderground v.1.15,2013-06-19 00:00:00,
2013-06-18 18:10:00,68.2,37.2,29.68,ESE,109,10.0,11.0,32,0.00,,,0.00,406,Wunderground v.1.15,2013-06-19 00:10:00,
2013-06-18 18:20:00,67.4,38.0,29.68,East,101,11.0,11.0,34,0.00,,,0.00,376,Wunderground v.1.15,2013-06-19 00:20:00,
2013-06-18 18:30:00,66.5,38.0,29.68,East,91,8.0,8.0,35,0.00,,,0.00,346,Wunderground v.1.15,2013-06-19 00:30:00,
2013-06-18 18:40:00,66.7,38.9,29.67,ENE,71,7.0,7.0,36,0.00,,,0.00,265,Wunderground v.1.15,2013-06-19 00:40:00,
2013-06-18 18:50:00,66.3,39.2,29.67,ENE,76,6.0,6.0,37,0.00,,,0.00,207,Wunderground v.1.15,2013-06-19 00:50:00,
2013-06-18 19:00:00,65.3,38.3,29.67,ENE,71,2.0,2.0,37,0.00,,,0.00,53,Wunderground v.1.15,2013-06-19 01:00:00,
2013-06-18 19:10:00,65.3,42.2,29.67,East,86,1.0,1.0,43,0.00,,,0.00,69,Wunderground v.1.15,2013-06-19 01:10:00,
2013-06-18 19:20:00,63.8,42.0,29.67,NE,39,0.0,0.0,45,0.00,,,0.00,33,Wunderground v.1.15,2013-06-19 01:20:00,
2013-06-18 19:30:00,61.7,41.3,29.67,NNW,332,0.0,0.0,47,0.00,,,0.00,16,Wunderground v.1.15,2013-06-19 01:30:00,
2013-06-18 19:40:00,60.0,39.7,29.68,SSE,149,1.0,8.0,47,0.00,,,0.00,14,Wunderground v.1.15,2013-06-19 01:40:00,
2013-06-18 19:50:00,61.3,38.6,29.69,WSW,246,3.0,18.0,43,0.00,,,0.00,16,Wunderground v.1.15,2013-06-19 01:50:00,
2013-06-18 20:00:00,62.0,36.7,29.70,SW,220,13.0,13.0,39,0.00,,,0.00,19,Wunderground v.1.15,2013-06-19 02:00:00,
2013-06-18 20:10:00,61.3,36.8,29.68,East,84,7.0,7.0,40,0.00,,,0.00,12,Wunderground v.1.15,2013-06-19 02:10:00,
2013-06-18 20:20:00,61.0,38.9,29.67,West,273,2.0,2.0,44,0.00,,,0.00,9,Wunderground v.1.15,2013-06-19 02:20:00,
2013-06-18 20:30:00,59.8,37.2,29.67,NW,311,4.0,4.0,43,0.00,,,0.00,0,Wunderground v.1.15,2013-06-19 02:30:00,
2013-06-18 20:50:00,59.2,38.4,29.65,South,171,3.0,3.0,46,0.00,,,0.00,0,Wunderground v.1.15,2013-06-19 02:50:00,
2013-06-18 21:10:00,56.1,39.2,29.66,South,171,1.0,6.0,53,0.00,,,0.00,0,Wunderground v.1.15,2013-06-19 03:10:00,
2013-06-18 21:21:00,55.2,38.8,29.68,South,174,4.0,4.0,54,0.00,,,0.00,0,Wunderground v.1.15,2013-06-19 03:21:00,
2013-06-18 21:30:00,54.5,38.7,29.69,West,271,2.0,2.0,55,0.00,,,0.00,0,Wunderground v.1.15,2013-06-19 03:30:00,
2013-06-18 21:40:00,54.3,40.7,29.69,WNW,289,1.0,1.0,60,0.00,,,0.00,0,Wunderground v.1.15,2013-06-19 03:40:00,
2013-06-18 21:51:00,54.8,40.7,29.69,North,5,3.0,6.0,59,0.00,,,0.00,0,Wunderground v.1.15,2013-06-19 03:51:00,
2013-06-18 22:10:00,55.3,40.8,29.70,NNE,22,3.0,3.0,58,0.00,,,0.00,0,Wunderground v.1.15,2013-06-19 04:10:00,
2013-06-18 22:20:00,55.4,41.3,29.69,NW,325,3.0,4.0,59,0.00,,,0.00,0,Wunderground v.1.15,2013-06-19 04:20:00,
2013-06-18 22:31:00,54.5,40.9,29.70,NW,323,4.0,4.0,60,0.00,,,0.00,0,Wunderground v.1.15,2013-06-19 04:31:00,
2013-06-18 22:40:00,54.1,41.4,29.70,ENE,59,4.0,4.0,62,0.00,,,0.00,0,Wunderground v.1.15,2013-06-19 04:40:00,
2013-06-18 22:50:00,54.4,41.6,29.70,ENE,64,5.0,5.0,62,0.00,,,0.00,0,Wunderground v.1.15,2013-06-19 04:50:00,
2013-06-18 23:00:00,54.4,41.2,29.70,ENE,75,4.0,4.0,61,0.00,,,0.00,0,Wunderground v.1.15,2013-06-19 05:00:00,
2013-06-18 23:10:00,54.2,41.5,29.70,ESE,105,1.0,1.0,62,0.00,,,0.00,0,Wunderground v.1.15,2013-06-19 05:10:00,
2013-06-18 23:21:00,53.0,41.9,29.70,NW,319,0.0,3.0,66,0.00,,,0.00,0,Wunderground v.1.15,2013-06-19 05:21:00,
2013-06-18 23:30:00,51.5,40.9,29.70,NW,319,1.0,3.0,67,0.00,,,0.00,0,Wunderground v.1.15,2013-06-19 05:30:00,
2013-06-18 23:40:00,50.4,40.6,29.70,NW,313,2.0,2.0,69,0.00,,,0.00,0,Wunderground v.1.15,2013-06-19 05:40:00,
2013-06-18 23:50:00,50.1,40.7,29.69,West,273,2.0,4.0,70,0.00,,,0.00,0,Wunderground v.1.15,2013-06-19 05:50:00,